Weather History for CYUS - October, 2013

Change the Weather History Date:

Monday, October 14, 2013

  Actual Average Record
Temperature  
Mean Temperature 24 °F -  
Max Temperature 28 °F - - ()
Min Temperature 21 °F - - ()
Degree Days  
Heating Degree Days 40    
Moisture  
Dew Point -    
Average Humidity    
Maximum Humidity    
Minimum Humidity    
Precipitation  
Precipitation 0.00 in - - ()
Sea Level Pressure  
Sea Level Pressure 29.86 in    
Wind  
Wind Speed 12 mph ()    
Max Wind Speed 20 mph    
Max Gust Speed -    
Visibility 8.2 miles    
Events Snow    
T = Trace of Precipitation, MM = Missing Value Source: Averaged Metar Reports

Daily Weather History Graph

Daily Weather History Graph

Search for Another Location

Airport or City:

Trip Planner

Search our weather history database for the weather conditions in past years. The results will help you decide how hot, cold, wet, or windy it might be!

Date:

Astronomy

Oct. 14, 2013 Rise Set
Actual Time 8:18 AM CDT 5:39 PM CDT
Civil Twilight 7:19 AM CDT 6:38 PM CDT
Nautical Twilight 6:12 AM CDT 7:44 PM CDT
Astronomical Twilight 5:02 AM CDT 8:53 PM CDT
Moon 4:55 PM CDT (10/14) 1:26 AM CDT (10/14)
Length of Visible Light 11h 19m
Length of Day
9h 20m
Waxing Gibbous, 79% of the Moon is Illuminated
Oct 14
Waxing Gibbous
Oct 18
Full
Oct 26
Last Quarter
Nov 3
New
Nov 9
First Quarter

Hourly Weather History & Observations

Time (CDT) Temp. Windchill Dew Point Humidity Pressure Visibility Wind Dir Wind Speed Gust Speed Precip Events Conditions
12:00 AM 28.4 °F 19.1 °F - N/A% 29.87 in 9.0 mi North 10.4 mph - N/A   Overcast
12:13 AM 28.4 °F 18.0 °F - N/A% 29.86 in 9.0 mi North 12.7 mph - N/A   Overcast
12:19 AM 28.4 °F 19.1 °F - N/A% 29.86 in 9.0 mi North 10.4 mph - N/A   Overcast
12:25 AM 28.4 °F 19.1 °F - N/A% 29.86 in 9.0 mi North 10.4 mph - N/A   Overcast
12:30 AM 28.4 °F 18.5 °F - N/A% 29.86 in 9.0 mi North 11.5 mph - N/A   Overcast
12:37 AM 28.4 °F 18.5 °F - N/A% 29.86 in 9.0 mi North 11.5 mph - N/A   Overcast
12:43 AM 28.4 °F 19.1 °F - N/A% 29.86 in 3.0 mi North 10.4 mph - N/A   Overcast
12:45 AM 28.4 °F 19.7 °F - N/A% 29.86 in 2.5 mi North 9.2 mph - N/A   Overcast
12:57 AM 28.4 °F 19.7 °F - N/A% 29.87 in 3.0 mi North 9.2 mph - N/A   Overcast
12:58 AM 28.4 °F 19.7 °F - N/A% 29.87 in 3.0 mi North 9.2 mph - N/A   Overcast
12:59 AM 28.4 °F 19.7 °F - N/A% 29.87 in 9.0 mi North 9.2 mph - N/A   Overcast
1:00 AM 28 °F - - % 29.88 in 9 mi North 10.4 mph - -   Overcast
1:00 AM 28.4 °F 19.7 °F - N/A% 29.88 in 9.0 mi North 9.2 mph - N/A   Overcast
1:14 AM 28.4 °F 20.4 °F - N/A% 29.87 in 9.0 mi North 8.1 mph - N/A   Overcast
2:00 AM 26.6 °F 18.2 °F - N/A% 29.88 in 9.0 mi North 8.1 mph - N/A   Overcast
2:06 AM 26.6 °F 18.2 °F - N/A% 29.86 in 9.0 mi North 8.1 mph - N/A   Overcast
3:00 AM 26.6 °F 16.8 °F - N/A% 29.87 in 9.0 mi North 10.4 mph - N/A   Overcast
4:00 AM 27 °F - - % 29.87 in 9 mi North 9.2 mph - -   Overcast
4:00 AM 26.6 °F 17.5 °F - N/A% 29.87 in 9.0 mi North 9.2 mph - N/A   Overcast
5:00 AM 26.6 °F 15.7 °F - N/A% 29.88 in 9.0 mi North 12.7 mph - N/A   Overcast
5:03 AM 26.6 °F 15.7 °F - N/A% 29.86 in 9.0 mi North 12.7 mph - N/A Snow Light Snow
5:20 AM 28.4 °F 18.5 °F - N/A% 29.86 in 9.0 mi North 11.5 mph - N/A   Overcast
5:24 AM 28.4 °F 18.5 °F - N/A% 29.86 in 9.0 mi North 11.5 mph - N/A Snow Light Snow
6:00 AM 28.4 °F 18.0 °F - N/A% 29.88 in 9.0 mi North 12.7 mph - N/A Snow Light Snow
6:11 AM 28.4 °F 17.5 °F - N/A% 29.86 in 9.0 mi North 13.8 mph - N/A Snow Light Snow
6:12 AM 28.4 °F 17.5 °F - N/A% 29.86 in 9.0 mi North 13.8 mph - N/A   Overcast
7:00 AM 28 °F - - % 29.88 in 9 mi North 12.7 mph - -   Overcast
7:00 AM 28.4 °F 17.5 °F - N/A% 29.88 in 9.0 mi North 13.8 mph - N/A   Overcast
7:05 AM 28.4 °F 17.5 °F - N/A% 29.86 in 9.0 mi North 13.8 mph - N/A   Overcast
7:16 AM 28.4 °F 18.0 °F - N/A% 29.86 in 9.0 mi North 12.7 mph - N/A   Overcast
8:00 AM 28.4 °F 17.0 °F - N/A% 29.87 in 4.0 mi North 15.0 mph - N/A   Overcast
8:07 AM 28.4 °F 17.0 °F - N/A% 29.85 in 2.1 mi North 15.0 mph - N/A   Overcast
8:27 AM 26.6 °F 15.2 °F - N/A% 29.85 in 5.0 mi North 13.8 mph - N/A   Mostly Cloudy
8:31 AM 26.6 °F 14.7 °F - N/A% 29.85 in 5.0 mi North 15.0 mph - N/A   Mostly Cloudy
8:37 AM 28.4 °F 17.0 °F - N/A% 29.85 in 5.0 mi North 15.0 mph - N/A   Mostly Cloudy
8:39 AM 28.4 °F 17.5 °F - N/A% 29.85 in 5.0 mi North 13.8 mph - N/A   Overcast
8:52 AM 28.4 °F 17.0 °F - N/A% 29.85 in 9.0 mi North 15.0 mph - N/A   Overcast
8:55 AM 28.4 °F 17.5 °F - N/A% 29.85 in 9.0 mi North 13.8 mph - N/A   Mostly Cloudy
9:00 AM 28.4 °F 17.5 °F - N/A% 29.86 in 9.0 mi North 13.8 mph - N/A   Mostly Cloudy
9:21 AM 28.4 °F 17.5 °F - N/A% 29.85 in 9.0 mi North 13.8 mph - N/A   Overcast
10:00 AM 28 °F - - % 29.86 in 9 mi North 17.3 mph - -   Overcast
10:00 AM 28.4 °F 16.2 °F - N/A% 29.86 in 9.0 mi North 17.3 mph - N/A   Overcast
11:00 AM 28.4 °F 15.8 °F - N/A% 29.86 in 9.0 mi North 18.4 mph - N/A   Overcast
12:00 PM 28.4 °F 15.8 °F - N/A% 29.86 in 9.0 mi North 18.4 mph - N/A   Overcast
12:12 PM 28.4 °F 15.8 °F - N/A% 29.84 in 9.0 mi North 18.4 mph - N/A   Overcast
12:40 PM 28.4 °F 17.0 °F - N/A% 29.84 in 9.0 mi North 15.0 mph - N/A   Mostly Cloudy
12:59 PM 28.4 °F 16.2 °F - N/A% 29.84 in 9.0 mi North 17.3 mph - N/A   Overcast
1:00 PM 28 °F - - % 29.86 in 9 mi North 17.3 mph - -   Overcast
1:00 PM 28.4 °F 16.2 °F - N/A% 29.86 in 9.0 mi North 17.3 mph - N/A   Overcast
1:35 PM 26.6 °F 13.8 °F - N/A% 29.84 in 9.0 mi North 17.3 mph - N/A   Scattered Clouds
2:00 PM 26.6 °F 14.7 °F - N/A% 29.86 in 9.0 mi NNW 15.0 mph - N/A   Clear
3:00 PM 24.8 °F 10.7 °F - N/A% 29.86 in 9.0 mi NNW 19.6 mph - N/A   Clear
4:00 PM 25 °F - - % 29.86 in 9 mi NNW 19.6 mph - -  
4:00 PM 24.8 °F 10.7 °F - N/A% 29.86 in 9.0 mi North 19.6 mph - N/A   Clear
5:00 PM 24.8 °F 11.5 °F - N/A% 29.87 in 9.0 mi NNW 17.3 mph - N/A   Clear
5:47 PM 24.8 °F 12.9 °F - N/A% 29.85 in 9.0 mi NNW 13.8 mph - N/A   Mostly Cloudy
6:00 PM 23.0 °F 10.6 °F - N/A% 29.87 in 9.0 mi NNW 13.8 mph - N/A   Mostly Cloudy
6:08 PM 23.0 °F 10.6 °F - N/A% 29.85 in 9.0 mi NNW 13.8 mph - N/A   Scattered Clouds
7:00 PM 22 °F - - % 29.86 in 9 mi NNW 13.8 mph - -  
7:00 PM 23.0 °F 10.6 °F - N/A% 29.86 in 9.0 mi NNW 13.8 mph - N/A   Clear
8:00 PM 21.2 °F 8.9 °F - N/A% 29.86 in 9.0 mi North 12.7 mph - N/A   Clear
8:26 PM 21.2 °F 8.3 °F - N/A% 29.83 in 9.0 mi North 13.8 mph - N/A   Mostly Cloudy
9:00 PM 21.2 °F 8.9 °F - N/A% 29.85 in 9.0 mi NNW 12.7 mph - N/A   Mostly Cloudy
10:00 PM 23 °F - - % 29.84 in 9 mi NNW 15.0 mph - -   Overcast
10:00 PM 23.0 °F 10.1 °F - N/A% 29.84 in 9.0 mi NNW 15.0 mph - N/A   Overcast
11:00 PM 21.2 °F 7.3 °F - N/A% 29.83 in 9.0 mi NNW 16.1 mph - N/A   Overcast